Weather History for K3J7 - May, 2014

Change the Weather History Date:

Sunday, May 4, 2014

  Actual Average (KAHN) Record (KAHN)
Temperature  
Mean Temperature 70 °F 67 °F  
Max Temperature 86 °F 79 °F 92 °F (1955)
Min Temperature 53 °F 55 °F 37 °F (1971)
Cooling Degree Days 4 3  
Month to date cooling degree days 12  
Year to date cooling degree days 70  
Growing Degree Days 20 (Base 50)    
Moisture  
Dew Point 48 °F    
Average Humidity 49    
Maximum Humidity 82    
Minimum Humidity 23    
Precipitation  
Precipitation 0.00 in 0.10 in 2.36 in (1857)
Month to date precipitation 0.41  
Year to date precipitation 16.52  
Sea Level Pressure  
Sea Level Pressure 30.01 in    
Wind  
Wind Speed 3 mph (West)    
Max Wind Speed 10 mph    
Max Gust Speed 16 mph    
Visibility 10 miles    
Events      
T = Trace of Precipitation, MM = Missing Value Source: NWS Daily Summary

Daily Weather History Graph

Daily Weather History Graph

Search for Another Location

Airport or City:

Trip Planner

Search our weather history database for the weather conditions in past years. The results will help you decide how hot, cold, wet, or windy it might be!

Date:

Astronomy

May. 04, 2014 Rise Set
Actual Time 6:41 AM EDT 8:17 PM EDT
Civil Twilight 6:14 AM EDT 8:44 PM EDT
Nautical Twilight 5:42 AM EDT 9:16 PM EDT
Astronomical Twilight 5:08 AM EDT 9:50 PM EDT
Moon 11:05 AM EDT (5/4) 12:21 AM EDT (5/4)
Length of Visible Light 14h 30m
Length of Day
13h 36m
Waxing Crescent, 27% of the Moon is Illuminated
May 4
Waxing Crescent
May 6
First Quarter
May 14
Full
May 21
Last Quarter
May 28
New

Hourly Weather History & Observations

Time (EDT) Temp. Dew Point Humidity Pressure Visibility Wind Dir Wind Speed Gust Speed Precip Events Conditions
12:15 AM 62.6 °F 46.4 °F 55% 30.00 in 10.0 mi West 3.5 mph - N/A   Clear
12:35 AM 60.8 °F 46.4 °F 59% 30.01 in 10.0 mi West 4.6 mph - N/A   Clear
12:55 AM 60.8 °F 46.4 °F 59% 30.01 in 10.0 mi WNW 3.5 mph - N/A   Clear
1:15 AM 59.0 °F 46.4 °F 63% 30.01 in 10.0 mi WNW 3.5 mph - N/A   Clear
1:35 AM 59.0 °F 46.4 °F 63% 30.02 in 10.0 mi Calm Calm - N/A   Clear
1:55 AM 59.0 °F 46.4 °F 63% 30.01 in 10.0 mi Calm Calm - N/A   Clear
2:15 AM 59.0 °F 46.4 °F 63% 30.01 in 10.0 mi Calm Calm - N/A   Clear
2:35 AM 59.0 °F 46.4 °F 63% 30.01 in 10.0 mi Calm Calm - N/A   Clear
2:55 AM 55.4 °F 48.2 °F 77% 30.01 in 10.0 mi Calm Calm - N/A   Clear
3:15 AM 55.4 °F 46.4 °F 72% 30.01 in 10.0 mi Calm Calm - N/A   Clear
3:35 AM 57.2 °F 46.4 °F 67% 30.01 in 10.0 mi Calm Calm - N/A   Clear
3:55 AM 57.2 °F 46.4 °F 67% 30.01 in 10.0 mi Calm Calm - N/A   Clear
4:15 AM 57.2 °F 46.4 °F 67% 30.01 in 10.0 mi Calm Calm - N/A   Clear
4:35 AM 57.2 °F 46.4 °F 67% 30.01 in 10.0 mi Calm Calm - N/A   Clear
4:55 AM 55.4 °F 46.4 °F 72% 30.01 in 10.0 mi West 3.5 mph - N/A   Clear
5:15 AM 57.2 °F 46.4 °F 67% 30.01 in 10.0 mi Calm Calm - N/A   Clear
5:35 AM 55.4 °F 46.4 °F 72% 30.02 in 10.0 mi Calm Calm - N/A   Clear
5:55 AM 53.6 °F 48.2 °F 82% 30.02 in 10.0 mi Calm Calm - N/A   Clear
6:15 AM 55.4 °F 46.4 °F 72% 30.02 in 10.0 mi Calm Calm - N/A   Clear
6:35 AM 53.6 °F 46.4 °F 77% 30.04 in 10.0 mi Calm Calm - N/A   Clear
6:55 AM 53.6 °F 46.4 °F 77% 30.05 in 10.0 mi Calm Calm - N/A   Clear
7:15 AM 53.6 °F 46.4 °F 77% 30.05 in 10.0 mi Calm Calm - N/A   Clear
7:35 AM 55.4 °F 46.4 °F 72% 30.06 in 10.0 mi West 3.5 mph - N/A   Clear
7:55 AM 59.0 °F 46.4 °F 63% 30.07 in 10.0 mi West 3.5 mph - N/A   Clear
8:15 AM 59.0 °F 48.2 °F 67% 30.06 in 10.0 mi WNW 3.5 mph - N/A   Clear
8:35 AM 60.8 °F 50.0 °F 68% 30.07 in 10.0 mi West 4.6 mph - N/A   Clear
8:55 AM 62.6 °F 50.0 °F 63% 30.07 in 10.0 mi West 3.5 mph - N/A   Clear
9:15 AM 64.4 °F 50.0 °F 59% 30.07 in 10.0 mi West 4.6 mph - N/A   Clear
9:35 AM 68.0 °F 51.8 °F 56% 30.07 in 10.0 mi West 3.5 mph - N/A   Clear
9:55 AM 69.8 °F 51.8 °F 53% 30.07 in 10.0 mi WNW 3.5 mph - N/A   Clear
10:15 AM 71.6 °F 50.0 °F 46% 30.07 in 10.0 mi West 4.6 mph - N/A   Clear
10:35 AM 73.4 °F 51.8 °F 47% 30.08 in 10.0 mi WNW 4.6 mph - N/A   Clear
10:55 AM 73.4 °F 51.8 °F 47% 30.08 in 10.0 mi WNW 4.6 mph - N/A   Clear
11:15 AM 77.0 °F 48.2 °F 36% 30.07 in 10.0 mi WNW 6.9 mph 16.1 mph N/A   Clear
11:35 AM 77.0 °F 50.0 °F 39% 30.07 in 10.0 mi WNW 10.4 mph 16.1 mph N/A   Clear
11:55 AM 78.8 °F 48.2 °F 34% 30.07 in 10.0 mi WNW 6.9 mph - N/A   Clear
12:15 PM 78.8 °F 46.4 °F 32% 30.07 in 10.0 mi West 5.8 mph - N/A   Clear
12:35 PM 80.6 °F 48.2 °F 32% 30.06 in 10.0 mi West 5.8 mph - N/A   Clear
12:55 PM 80.6 °F 46.4 °F 30% 30.05 in 10.0 mi WNW 5.8 mph - N/A   Clear
1:15 PM 82.4 °F 48.2 °F 30% 30.05 in 10.0 mi WSW 5.8 mph - N/A   Clear
1:35 PM 82.4 °F 50.0 °F 32% 30.04 in 10.0 mi WSW 3.5 mph - N/A   Clear
1:55 PM 82.4 °F 46.4 °F 28% 30.02 in 10.0 mi WSW 3.5 mph - N/A   Clear
2:15 PM 82.4 °F 48.2 °F 30% 30.01 in 10.0 mi WSW 6.9 mph - N/A   Clear
2:35 PM 82.4 °F 46.4 °F 28% 30.00 in 10.0 mi West 8.1 mph - N/A   Clear
2:55 PM 84.2 °F 48.2 °F 29% 30.00 in 10.0 mi WSW 5.8 mph - N/A   Clear
3:15 PM 86.0 °F 48.2 °F 27% 29.99 in 10.0 mi WSW 8.1 mph - N/A   Clear
3:35 PM 86.0 °F 50.0 °F 29% 29.98 in 10.0 mi WSW 5.8 mph - N/A   Clear
3:55 PM 86.0 °F 46.4 °F 25% 29.98 in 10.0 mi West 9.2 mph - N/A   Clear
4:15 PM 86.0 °F 48.2 °F 27% 29.98 in 10.0 mi West 8.1 mph - N/A   Clear
4:35 PM 86.0 °F 44.6 °F 23% 29.97 in 10.0 mi West 5.8 mph - N/A   Clear
4:55 PM 86.0 °F 44.6 °F 23% 29.97 in 10.0 mi West 9.2 mph - N/A   Clear
5:15 PM 86.0 °F 44.6 °F 23% 29.97 in 10.0 mi West 9.2 mph - N/A   Clear
5:35 PM 86.0 °F 46.4 °F 25% 29.97 in 10.0 mi West 6.9 mph - N/A   Clear
5:55 PM 86.0 °F 46.4 °F 25% 29.96 in 10.0 mi West 6.9 mph - N/A   Clear
6:15 PM 84.2 °F 46.4 °F 27% 29.96 in 10.0 mi Calm Calm - N/A   Clear
6:35 PM 84.2 °F 46.4 °F 27% 29.95 in 10.0 mi West 6.9 mph - N/A   Clear
6:55 PM 82.4 °F 46.4 °F 28% 29.95 in 10.0 mi WSW 3.5 mph - N/A   Clear
7:15 PM 82.4 °F 48.2 °F 30% 29.95 in 10.0 mi WSW 3.5 mph - N/A   Clear
7:35 PM 80.6 °F 48.2 °F 32% 29.95 in 10.0 mi Calm Calm - N/A   Clear
7:55 PM 78.8 °F 50.0 °F 36% 29.96 in 10.0 mi Calm Calm - N/A   Clear
8:15 PM 78.8 °F 50.0 °F 36% 29.96 in 10.0 mi Calm Calm - N/A   Clear
8:35 PM 77.0 °F 50.0 °F 39% 29.97 in 10.0 mi Calm Calm - N/A   Clear
8:55 PM 71.6 °F 51.8 °F 50% 29.97 in 10.0 mi Calm Calm - N/A   Clear
9:15 PM 73.4 °F 51.8 °F 47% 29.98 in 10.0 mi Calm Calm - N/A   Clear
9:35 PM 73.4 °F 51.8 °F 47% 29.98 in 10.0 mi Calm Calm - N/A   Clear
9:55 PM 71.6 °F 51.8 °F 50% 29.98 in 10.0 mi WSW 3.5 mph - N/A   Clear
10:15 PM 71.6 °F 51.8 °F 50% 29.98 in 10.0 mi WSW 3.5 mph - N/A   Clear
10:35 PM 71.6 °F 51.8 °F 50% 29.99 in 10.0 mi Calm Calm - N/A   Clear
10:55 PM 69.8 °F 51.8 °F 53% 29.99 in 10.0 mi Calm Calm - N/A   Clear
11:15 PM 69.8 °F 51.8 °F 53% 29.99 in 10.0 mi Calm Calm - N/A   Clear
11:35 PM 69.8 °F 51.8 °F 53% 30.00 in 10.0 mi Calm Calm - N/A   Clear
11:55 PM 69.8 °F 51.8 °F 53% 30.00 in 10.0 mi Calm Calm - N/A   Clear